2023/02/12 00:00:00,53.0,-0.5
2023/02/12 00:10:00,53.0,-0.5
2023/02/12 00:20:00,52.9,-0.3
2023/02/12 00:30:00,52.8,-0.3
2023/02/12 00:40:00,52.8,-0.6
2023/02/12 00:50:00,52.7,-0.9
2023/02/12 01:00:00,52.8,-0.5
2023/02/12 01:10:00,52.7,-0.5
2023/02/12 01:20:00,52.8,-0.7
2023/02/12 01:30:00,52.8,-0.6
2023/02/12 01:40:00,52.8,-0.9
2023/02/12 01:50:00,52.8,-0.4
2023/02/12 02:00:00,52.8,-0.3
2023/02/12 02:10:00,52.7,-0.8
2023/02/12 02:20:00,52.7,-0.6
2023/02/12 02:30:00,52.7,-0.6
2023/02/12 02:40:00,52.7,-0.3
2023/02/12 02:50:00,52.7,-0.6
2023/02/12 03:00:00,52.7,-0.6
2023/02/12 03:10:00,52.7,-0.4
2023/02/12 03:20:00,52.6,-0.5
2023/02/12 03:30:00,52.7,-0.4
2023/02/12 03:40:00,52.8,-0.8
2023/02/12 03:50:00,52.8,-0.7
2023/02/12 04:00:00,52.9,-0.7
2023/02/12 04:10:00,52.8,-0.4
2023/02/12 04:20:00,52.8,-0.6
2023/02/12 04:30:00,52.8,-0.6
2023/02/12 04:40:00,52.9,-0.6
2023/02/12 04:50:00,52.9,-0.6
2023/02/12 05:00:00,52.9,-1.1
2023/02/12 05:10:00,52.9,-1.0
2023/02/12 05:20:00,52.9,-0.9
2023/02/12 05:30:00,52.9,-0.6
2023/02/12 05:40:00,52.9,-0.9
2023/02/12 05:50:00,52.8,-0.7
2023/02/12 06:00:00,52.8,-0.7
2023/02/12 06:10:00,52.9,-1.2
2023/02/12 06:20:00,52.8,-1.0
2023/02/12 06:30:00,52.8,-1.2
2023/02/12 06:40:00,52.8,-1.1
2023/02/12 06:50:00,52.8,-0.6
2023/02/12 07:00:00,52.8,-0.6
2023/02/12 07:10:00,52.8,-1.1
2023/02/12 07:20:00,52.8,-0.8
2023/02/12 07:30:00,52.9,-0.2
2023/02/12 07:40:00,53.0,-0.9
2023/02/12 07:50:00,53.1,-0.3
2023/02/12 08:00:00,53.0,-0.3
2023/02/12 08:10:00,52.7, 0.0
2023/02/12 08:20:00,52.7, 0.3
2023/02/12 08:30:00,52.7, 0.3
2023/02/12 08:40:00,52.7, 0.8
2023/02/12 08:50:00,52.7, 1.9
2023/02/12 09:00:00,52.7, 2.6
2023/02/12 09:10:00,52.6, 5.9
2023/02/12 09:20:00,52.6, 8.7
2023/02/12 09:30:00,52.5,10.5
2023/02/12 09:40:00,52.5, 8.3
2023/02/12 09:50:00,52.5, 4.1
2023/02/12 10:00:00,52.5, 8.1
2023/02/12 10:10:00,52.4, 9.8
2023/02/12 10:20:00,52.5, 9.2
2023/02/12 10:30:00,52.1, 7.1
2023/02/12 10:40:00,51.9, 7.3
2023/02/12 10:50:00,51.8, 7.9
2023/02/12 11:00:00,51.6, 8.3
2023/02/12 11:10:00,51.8, 7.4
2023/02/12 11:20:00,51.5, 8.5
2023/02/12 11:30:00,51.2, 8.1
2023/02/12 11:40:00,51.3, 8.2
2023/02/12 11:50:00,51.4, 7.1
2023/02/12 12:00:00,51.3, 7.8
2023/02/12 12:10:00,51.5, 8.1
2023/02/12 12:20:00,50.8, 8.4
2023/02/12 12:30:00,50.2, 9.6
2023/02/12 12:40:00,50.8, 9.6
2023/02/12 12:50:00,50.2,10.5
2023/02/12 13:00:00,50.5, 9.6
2023/02/12 13:10:00,50.2, 8.9
2023/02/12 13:20:00,49.2, 9.7
2023/02/12 13:30:00,48.8, 9.6
2023/02/12 13:40:00,48.9, 9.6
2023/02/12 13:50:00,49.5, 8.7
2023/02/12 14:00:00,49.4, 8.3
2023/02/12 14:10:00,49.3, 9.3
2023/02/12 14:20:00,49.8, 9.6
2023/02/12 14:30:00,49.4, 8.3
2023/02/12 14:40:00,49.1, 8.7
2023/02/12 14:50:00,48.6, 8.8
2023/02/12 15:00:00,48.5, 7.6
2023/02/12 15:10:00,48.5, 6.6
2023/02/12 15:20:00,48.7, 6.2
2023/02/12 15:30:00,48.8, 5.6
2023/02/12 15:40:00,48.8, 4.1
2023/02/12 15:50:00,49.0, 4.0
2023/02/12 16:00:00,49.6, 3.8
2023/02/12 16:10:00,49.6, 3.3
2023/02/12 16:20:00,49.2, 2.9
2023/02/12 16:30:00,49.3, 2.6
2023/02/12 16:40:00,49.4, 2.5
2023/02/12 16:50:00,49.4, 2.4
2023/02/12 17:00:00,49.5, 2.4
2023/02/12 17:10:00,49.5, 1.9
2023/02/12 17:20:00,49.6, 1.8
2023/02/12 17:30:00,49.6, 1.8
2023/02/12 17:40:00,50.0, 1.8
2023/02/12 17:50:00,49.9, 1.7
2023/02/12 18:00:00,49.5, 1.5
2023/02/12 18:10:00,49.4, 1.4
2023/02/12 18:20:00,49.4, 1.3
2023/02/12 18:30:00,49.2, 1.4
2023/02/12 18:40:00,49.2, 1.4
2023/02/12 18:50:00,49.2, 1.3
2023/02/12 19:00:00,49.4, 1.1
2023/02/12 19:10:00,49.5, 1.1
2023/02/12 19:20:00,49.4, 0.7
2023/02/12 19:30:00,49.4, 1.0
2023/02/12 19:40:00,49.4, 1.2
2023/02/12 19:50:00,49.4, 1.1
2023/02/12 20:00:00,49.2, 1.1
2023/02/12 20:10:00,49.2, 1.0
2023/02/12 20:20:00,49.3, 1.1
2023/02/12 20:30:00,49.2, 1.0
2023/02/12 20:40:00,49.3, 1.3
2023/02/12 20:50:00,49.3, 1.1
2023/02/12 21:00:00,49.3, 0.9
2023/02/12 21:10:00,49.5, 1.1
2023/02/12 21:20:00,49.7, 1.4
2023/02/12 21:30:00,49.7, 1.0
2023/02/12 21:40:00,49.8, 1.1
2023/02/12 21:50:00,49.9, 1.1
2023/02/12 22:00:00,49.9, 1.1
2023/02/12 22:10:00,50.0, 1.1
2023/02/12 22:20:00,50.0, 1.1
2023/02/12 22:30:00,50.0, 1.3
2023/02/12 22:40:00,49.8, 1.1
2023/02/12 22:50:00,49.8, 1.1
2023/02/12 23:00:00,49.9, 1.0
2023/02/12 23:10:00,49.8, 1.1
2023/02/12 23:20:00,49.6, 1.1
2023/02/12 23:30:00,49.6, 1.1
2023/02/12 23:40:00,49.5, 1.1
2023/02/12 23:50:00,49.6, 0.9
